Greenville, AL

1:28 AM CST on February 08, 2016 (GMT -0600)
Greenville Municipal

Weather History for KPRN - April, 2014

Change the Weather History Date:

Friday, April 25, 2014

  Actual Average Record
Temperature  
Mean Temperature 72 °F -  
Max Temperature 82 °F 79 °F 90 °F (1958)
Min Temperature 61 °F 52 °F 40 °F (1968)
Cooling Degree Days 7    
Growing Degree Days 22 (Base 50)    
Moisture  
Dew Point 60 °F    
Average Humidity 73    
Maximum Humidity 94    
Minimum Humidity 34    
Precipitation  
Precipitation 0.00 in - - ()
Sea Level Pressure  
Sea Level Pressure 29.92 in    
Wind  
Wind Speed 7 mph (WSW)    
Max Wind Speed 16 mph    
Max Gust Speed 24 mph    
Visibility 9 miles    
Events      
Averages and records for this station are not official NWS values.
T = Trace of Precipitation, MM = Missing Value Source: NWS Daily Summary

Daily Weather History Graph

Daily Weather History Graph

Search for Another Location

Airport or City:

Trip Planner

Search our weather history database for the weather conditions in past years. The results will help you decide how hot, cold, wet, or windy it might be!

Date:

Astronomy

Apr. 25, 2014 Rise Set
Actual Time 6:06 AM CDT 7:22 PM CDT
Civil Twilight 5:41 AM CDT 7:48 PM CDT
Nautical Twilight 5:10 AM CDT 8:18 PM CDT
Astronomical Twilight 4:39 AM CDT 8:50 PM CDT
Moon 3:39 AM CDT (4/25) 3:57 PM CDT (4/25)
Length of Visible Light 14h 06m
Length of Day
13h 15m
Waning Crescent, 15% of the Moon is Illuminated
Apr 25
Waning Crescent
Apr 29
New
May 6
First Quarter
May 14
Full
May 21
Last Quarter

Hourly Weather History & Observations

Time (CDT) Temp. Heat Index Dew Point Humidity Pressure Visibility Wind Dir Wind Speed Gust Speed Precip Events Conditions
12:05 AM 64.4 °F - 62.6 °F 94% 29.92 in 9.0 mi SSW 8.1 mph - N/A   Mostly Cloudy
12:56 AM 64.9 °F - 62.1 °F 90% 29.92 in 8.0 mi SW 3.5 mph - N/A   Overcast
1:52 AM 66.2 °F - 62.6 °F 88% 29.93 in 8.0 mi WSW 8.1 mph - N/A   Mostly Cloudy
2:21 AM 66.2 °F - 62.6 °F 88% 29.92 in 8.0 mi SW 5.8 mph - N/A   Mostly Cloudy
2:37 AM 66.2 °F - 62.6 °F 88% 29.91 in 8.0 mi SW 4.6 mph - N/A   Mostly Cloudy
2:56 AM 66.0 °F - 62.1 °F 87% 29.88 in 8.0 mi SSW 5.8 mph - N/A   Overcast
3:29 AM 64.4 °F - 62.6 °F 94% 29.89 in 7.0 mi SSW 8.1 mph - N/A   Scattered Clouds
3:40 AM 66.2 °F - 62.6 °F 88% 29.89 in 7.0 mi SSW 6.9 mph - N/A   Mostly Cloudy
3:56 AM 66.0 °F - 63.0 °F 90% 29.87 in 7.0 mi SW 9.2 mph - N/A   Overcast
4:56 AM 68.0 °F - 64.0 °F 87% 29.88 in 7.0 mi SW 6.9 mph - N/A   Overcast
5:56 AM 68.0 °F - 64.0 °F 87% 29.89 in 8.0 mi WSW 9.2 mph - N/A   Overcast
6:15 AM 68.0 °F - 64.4 °F 88% 29.91 in 8.0 mi SW 5.8 mph - N/A   Overcast
6:31 AM 68.0 °F - 64.4 °F 88% 29.92 in 7.0 mi WSW 4.6 mph - N/A   Overcast
6:43 AM 68.0 °F - 64.4 °F 88% 29.92 in 7.0 mi SW 5.8 mph - N/A   Overcast
6:56 AM 68.0 °F - 64.9 °F 90% 29.91 in 6.0 mi SW 4.6 mph - N/A   Overcast
7:13 AM 68.0 °F - 64.4 °F 88% 29.94 in 7.0 mi SW 4.6 mph - N/A   Overcast
7:56 AM 69.1 °F - 64.9 °F 87% 29.94 in 7.0 mi WSW 6.9 mph - N/A   Overcast
8:12 AM 69.8 °F - 64.4 °F 83% 29.95 in 8.0 mi West 10.4 mph - N/A   Overcast
8:56 AM 73.0 °F - 60.1 °F 64% 29.94 in 10.0 mi West 9.2 mph - N/A   Mostly Cloudy
9:56 AM 75.9 °F - 57.0 °F 52% 29.95 in 10.0 mi West 11.5 mph 18.4 mph N/A   Partly Cloudy
10:56 AM 77.0 °F - 57.0 °F 50% 29.96 in 10.0 mi WNW 9.2 mph - N/A   Partly Cloudy
11:56 AM 79.0 °F - 57.9 °F 48% 29.95 in 10.0 mi WSW 10.4 mph 19.6 mph N/A   Clear
12:56 PM 81.0 °F 81.0 °F 57.0 °F 44% 29.94 in 10.0 mi West 16.1 mph 24.2 mph N/A   Partly Cloudy
1:56 PM 82.9 °F 82.4 °F 57.0 °F 41% 29.93 in 10.0 mi West 13.8 mph 18.4 mph N/A   Partly Cloudy
2:56 PM 82.0 °F 81.3 °F 54.0 °F 38% 29.92 in 10.0 mi NW 10.4 mph 17.3 mph N/A   Clear
3:56 PM 82.9 °F - 52.0 °F 34% 29.91 in 10.0 mi West 10.4 mph 19.6 mph N/A   Clear
5:56 PM 81.0 °F - 51.1 °F 35% 29.89 in 10.0 mi Variable 4.6 mph - N/A   Clear
6:56 PM 79.0 °F - 51.1 °F 38% 29.89 in 10.0 mi NW 3.5 mph - N/A   Clear
7:56 PM 70.0 °F - 57.9 °F 65% 29.91 in 10.0 mi Calm Calm - N/A   Clear
8:56 PM 66.9 °F - 57.0 °F 70% 29.93 in 10.0 mi North 4.6 mph - N/A   Clear
9:56 PM 63.0 °F - 57.0 °F 81% 29.96 in 10.0 mi Calm Calm - N/A   Clear
10:56 PM 62.1 °F - 55.9 °F 80% 29.96 in 10.0 mi North 3.5 mph - N/A   Clear
11:56 PM 61.0 °F - 55.0 °F 81% 29.95 in 10.0 mi Calm Calm - N/A   Clear